Meteo pe oră la Allmen

Astăzi, 17 Ianuarie, Duminică

Timp Temperatura Precipitaţii Vânt Presiune Umiditate
00:00 -8°C° 0.1 mm 1 m/s 642 mmHg 78%
01:00 -8°C° 0.1 mm 1 m/s 641 mmHg 78%
02:00 -7°C° 0.6 mm 1 m/s 641 mmHg 84%
03:00 -7°C° 0.6 mm 1 m/s 640 mmHg 90%
04:00 -7°C° 0.6 mm 1 m/s 640 mmHg 96%
05:00 -6°C° 1 mm 1 m/s 640 mmHg 96%
06:00 -7°C° 1 mm 2 m/s 640 mmHg 96%
07:00 -6°C° 1 mm 2 m/s 640 mmHg 96%
08:00 -6°C° 0.5 mm 2 m/s 640 mmHg 97%
09:00 -5°C° 0.5 mm 2 m/s 641 mmHg 97%
10:00 -6°C° 0.5 mm 3 m/s 641 mmHg 97%
11:00 -6°C° 0.9 mm 3 m/s 641 mmHg 98%
12:00 -5°C° 0.9 mm 3 m/s 641 mmHg 98%
13:00 -5°C° 0.9 mm 3 m/s 641 mmHg 98%
14:00 -5°C° 1.4 mm 3 m/s 641 mmHg 98%
15:00 -6°C° 1.4 mm 3 m/s 642 mmHg 98%
16:00 -6°C° 1.4 mm 3 m/s 642 mmHg 98%
17:00 -5°C° 1.1 mm 2 m/s 642 mmHg 98%
18:00 -5°C° 1.1 mm 2 m/s 643 mmHg 98%
19:00 -5°C° 1.1 mm 2 m/s 644 mmHg 98%
20:00 -6°C° 0.8 mm 2 m/s 644 mmHg 98%
21:00 -6°C° 0.8 mm 2 m/s 644 mmHg 98%
22:00 -6°C° 0.8 mm 2 m/s 645 mmHg 97%
23:00 -6°C° 0.3 mm 2 m/s 645 mmHg 97%

Mâine, 18 Ianuarie, Luni

Timp Temperatura Precipitaţii Vânt Presiune Umiditate
00:00 -7°C° 0.3 mm 2 m/s 645 mmHg 97%
01:00 -7°C° 0.3 mm 2 m/s 646 mmHg 97%
02:00 -7°C° 0.2 mm 1 m/s 645 mmHg 97%
03:00 -7°C° 0.2 mm 1 m/s 645 mmHg 97%
04:00 -7°C° 0.2 mm 1 m/s 645 mmHg 97%
05:00 -8°C° 0.2 mm 1 m/s 646 mmHg 97%
06:00 -8°C° 0.2 mm 1 m/s 646 mmHg 96%
07:00 -8°C° 0.2 mm 1 m/s 646 mmHg 96%
08:00 -7°C° 0.1 mm 1 m/s 647 mmHg 96%
09:00 -7°C° 0.1 mm 1 m/s 647 mmHg 95%
10:00 -6°C° 0.1 mm 1 m/s 647 mmHg 94%
11:00 -6°C° 0 mm 1 m/s 647 mmHg 93%
12:00 -4°C° 0 mm 1 m/s 647 mmHg 92%
13:00 -3°C° 0 mm 1 m/s 647 mmHg 91%
14:00 -4°C° 0 mm 1 m/s 647 mmHg 92%
15:00 -4°C° 0 mm 1 m/s 646 mmHg 93%
16:00 -4°C° 0 mm 1 m/s 646 mmHg 94%
17:00 -6°C° 0 mm 1 m/s 646 mmHg 93%
18:00 -8°C° 0 mm 1 m/s 646 mmHg 92%
19:00 -9°C° 0 mm 1 m/s 646 mmHg 91%
20:00 -9°C° 0 mm 1 m/s 646 mmHg 88%
21:00 -10°C° 0 mm 2 m/s 646 mmHg 86%
22:00 -10°C° 0 mm 2 m/s 645 mmHg 83%
23:00 -10°C° 0 mm 2 m/s 645 mmHg 81%

Poimâine, 19 Ianuarie, Marţi

Timp Temperatura Precipitaţii Vânt Presiune Umiditate
00:00 -10°C° 0 mm 2 m/s 645 mmHg 79%
01:00 -10°C° 0 mm 2 m/s 645 mmHg 76%
02:00 -10°C° 0 mm 2 m/s 644 mmHg 74%
03:00 -10°C° 0 mm 2 m/s 644 mmHg 73%
04:00 -10°C° 0 mm 2 m/s 643 mmHg 71%
05:00 -9°C° 0 mm 2 m/s 643 mmHg 70%
06:00 -9°C° 0 mm 2 m/s 643 mmHg 69%
07:00 -9°C° 0 mm 2 m/s 643 mmHg 69%
08:00 -7°C° 0 mm 2 m/s 643 mmHg 70%
09:00 -6°C° 0 mm 2 m/s 643 mmHg 72%
10:00 -5°C° 0 mm 2 m/s 643 mmHg 74%
11:00 -4°C° 0 mm 2 m/s 643 mmHg 80%
12:00 -1°C° 0 mm 1 m/s 643 mmHg 85%
13:00 0°C° 0 mm 1 m/s 643 mmHg 91%
14:00 0°C° 0 mm 1 m/s 643 mmHg 88%
15:00 0°C° 0 mm 1 m/s 642 mmHg 84%
16:00 0°C° 0 mm 1 m/s 642 mmHg 81%
17:00 -1°C° 0 mm 1 m/s 642 mmHg 78%
18:00 -4°C° 0 mm 2 m/s 642 mmHg 75%
19:00 -5°C° 0 mm 2 m/s 642 mmHg 73%
20:00 -6°C° 0 mm 2 m/s 641 mmHg 72%
21:00 -7°C° 0 mm 3 m/s 641 mmHg 71%
22:00 -8°C° 0 mm 3 m/s 641 mmHg 70%
23:00 -8°C° 0 mm 3 m/s 641 mmHg 70%

20 Ianuarie, Miercuri

Timp Temperatura Precipitaţii Vânt Presiune Umiditate
00:00 -8°C° 0 mm 3 m/s 641 mmHg 70%
01:00 -8°C° 0 mm 3 m/s 640 mmHg 70%
02:00 -9°C° 0 mm 3 m/s 640 mmHg 71%
03:00 -9°C° 0 mm 3 m/s 640 mmHg 72%
04:00 -9°C° 0 mm 3 m/s 639 mmHg 73%
05:00 -9°C° 0 mm 3 m/s 639 mmHg 74%
06:00 -9°C° 0 mm 3 m/s 639 mmHg 76%
07:00 -9°C° 0 mm 3 m/s 639 mmHg 77%
08:00 -8°C° 0 mm 3 m/s 639 mmHg 78%
09:00 -7°C° 0 mm 3 m/s 639 mmHg 79%
10:00 -6°C° 0 mm 3 m/s 639 mmHg 81%
11:00 -5°C° 0 mm 3 m/s 639 mmHg 83%
12:00 -4°C° 0 mm 3 m/s 639 mmHg 85%
13:00 -2°C° 0 mm 3 m/s 639 mmHg 87%
14:00 -2°C° 0 mm 3 m/s 638 mmHg 86%
15:00 -2°C° 0 mm 3 m/s 638 mmHg 85%
16:00 -4°C° 0 mm 3 m/s 637 mmHg 84%
17:00 -4°C° 0 mm 3 m/s 637 mmHg 83%
18:00 -5°C° 0 mm 3 m/s 637 mmHg 82%
19:00 -7°C° 0 mm 4 m/s 637 mmHg 81%
20:00 -7°C° 0 mm 4 m/s 636 mmHg 82%
21:00 -7°C° 0 mm 4 m/s 636 mmHg 82%
22:00 -6°C° 0 mm 3 m/s 636 mmHg 82%
23:00 -6°C° 0 mm 3 m/s 635 mmHg 82%

21 Ianuarie, Joi

Timp Temperatura Precipitaţii Vânt Presiune Umiditate
00:00 -7°C° 0 mm 4 m/s 635 mmHg 82%
01:00 -8°C° 0 mm 4 m/s 635 mmHg 82%
02:00 -6°C° 0 mm 3 m/s 635 mmHg 82%
03:00 -6°C° 0 mm 3 m/s 635 mmHg 82%
04:00 -6°C° 0 mm 3 m/s 634 mmHg 82%
05:00 -6°C° 0 mm 3 m/s 634 mmHg 82%
06:00 -6°C° 0 mm 3 m/s 634 mmHg 82%
07:00 -7°C° 0 mm 4 m/s 633 mmHg 82%
08:00 -6°C° 0 mm 3 m/s 634 mmHg 83%
09:00 -5°C° 0 mm 3 m/s 634 mmHg 84%
10:00 -4°C° 0 mm 3 m/s 635 mmHg 85%
11:00 -3°C° 0 mm 2 m/s 635 mmHg 88%
12:00 -2°C° 0 mm 2 m/s 636 mmHg 92%
13:00 -1°C° 0 mm 2 m/s 636 mmHg 95%
14:00 0°C° 0 mm 1 m/s 636 mmHg 94%
15:00 0°C° 0 mm 1 m/s 635 mmHg 94%
16:00 0°C° 0 mm 1 m/s 635 mmHg 93%
17:00 -3°C° 0 mm 2 m/s 635 mmHg 90%
18:00 -4°C° 0 mm 2 m/s 635 mmHg 87%
19:00 -5°C° 0 mm 2 m/s 634 mmHg 85%
20:00 -5°C° 0 mm 2 m/s 634 mmHg 84%
21:00 -5°C° 0 mm 2 m/s 634 mmHg 83%
22:00 -5°C° 0 mm 2 m/s 634 mmHg 82%
23:00 -5°C° 0 mm 2 m/s 633 mmHg 82%

22 Ianuarie, Vineri

Timp Temperatura Precipitaţii Vânt Presiune Umiditate
00:00 -5°C° 0 mm 2 m/s 633 mmHg 83%
01:00 -5°C° 0 mm 2 m/s 632 mmHg 83%
02:00 -5°C° 0 mm 2 m/s 632 mmHg 83%
03:00 -4°C° 0 mm 2 m/s 631 mmHg 84%
04:00 -4°C° 0 mm 2 m/s 631 mmHg 85%
05:00 -4°C° 0 mm 2 m/s 631 mmHg 85%
06:00 -4°C° 0 mm 2 m/s 630 mmHg 86%
07:00 -4°C° 0 mm 2 m/s 630 mmHg 87%
08:00 -3°C° 0 mm 2 m/s 630 mmHg 88%
09:00 -3°C° 0 mm 2 m/s 630 mmHg 88%
10:00 -1°C° 0 mm 1 m/s 630 mmHg 89%
11:00 0°C° 0.1 mm 1 m/s 630 mmHg 91%
12:00 0°C° 0.1 mm 1 m/s 630 mmHg 94%
13:00 0°C° 0.1 mm 0 m/s 630 mmHg 96%
14:00 0°C° 0.6 mm 1 m/s 630 mmHg 97%
15:00 -2°C° 0.6 mm 2 m/s 630 mmHg 98%
16:00 -4°C° 0.6 mm 3 m/s 630 mmHg 98%
17:00 -4°C° 1.1 mm 3 m/s 631 mmHg 98%
18:00 -4°C° 1.1 mm 2 m/s 631 mmHg 98%
19:00 -5°C° 1.1 mm 2 m/s 632 mmHg 98%
20:00 -5°C° 0.2 mm 2 m/s 632 mmHg 97%
21:00 -3°C° 0.2 mm 1 m/s 633 mmHg 97%
22:00 -4°C° 0.2 mm 1 m/s 633 mmHg 96%
23:00 -4°C° 0 mm 1 m/s 633 mmHg 94%
Arată mai mult

Formular de consimțământ

Meteoprog și furnizorii noștri de servicii pot stoca și accesa date personale, precum cookies, identificatori de dispozitiv sau alte tehnologii similare pe dispozitivul dumneavoastră și procesa astfel de date pentru a personaliza conținutul și reclamele, dar și pentru a oferi caracteristici de social media și pentru a analiza traficul.

  • Stocarea și/sau accesarea informațiilor pe dispozitivul dumneavoastră

    Cookies, identificatori de dispozitiv sau alte informații pot fi stocate sau accesate pe dispozitiv în scopurile indicate mai sus.

  • Reclame și conținut personalizat, evaluarea reclamelor și a conținutului, informații despre audiențe și dezvoltarea produselor

    Reclamele și conținutul pot fi personalizate pe baza unui profil. Pot fi adăugate date suplimentare pentru a personaliza mai bine reclamele și conținutul. Performanța reclamelor și conținutului poate fi măsurată. Pot fi obținute informații despre utilizatorii care au văzut reclamele și conținutul. Aceste date pot fi utilizate pentru a dezvolta sau îmbunătăți experiența utilizatorilor, sistemele și software-ul.

Dând clic pe ‘Sunt de acord’, permiteți utilizarea cookie-urilor menționate, a identificatorilor de dispozitiv, balizelor web sau altor tehnologii similare. Setările pot fi modificate din browser-ul dispozitivului dumneavoastră.

În anumite scopuri, interesele legitime pot prima asupra consimțământului. Puteți citi mai multe informații în acest sens în Politica privind Confidențialitatea Datelor și Cookie.